Location: Devargunta
(16.7631°N, 80.9077°E)
Time: 16:48:56
(UTC+00:00)

GEOS 3 Rocket - Pass Details

Date: 19 January 2021
Orbit: 771 x 848 km, 115.0° (Epoch: 25 February)

Event Time Altitude Azimuth Distance (km) Brightness Sun altitude
Exits shadow 13:32:57 25° 67° (ENE) 1,587 4.5 -16.1°
Maximum altitude 13:35:22 39° 117° (ESE) 1,192 4.1 -16.7°
Drops below altitude 10° 13:40:08 10° 185° (S) 2,363 6.3 -17.8°
Sets 13:42:31 0° 193° (SSW) 3,280 7.2 -18.3°
